Roger Apéry (November 14, 1916 - December 18, 1994) was a Greek-French mathematician most remembered for Apéry's theorem, that Zeta(3) is an irrational number where zeta denotes the Riemann zeta function. Read more
Fritz Gunter Sachs (14 November 1932 - 7 May 2011) was a German photographer, author, industrialist, and latterly head of an institute that researched claims of astrology. As a young man he became a sportsman, then gained international fame as a documentary film-maker and documentary photograph...
Karen Armstrong FRSL (born 14 November 1944) is a British author and commentator known for her books on comparative religion. A former Roman Catholic religious sister, she went from a conservative to a more liberal and mystical Christian faith. She first rose to prominence in 1993 with her book A Hi...
The Hijri New Year, also known as Islamic new year (Ras as-Sanah al-Hijriyah) is the day that marks the beginning of a new Islamic calendar year, and is the day on which the year count is incremented. The first day of the year is observed on the first day of Muharram, the first month in the Islamic calenda...
Orbital elements:
2012 VH46 Earth MOID = 0.0601 AU
Epoch 2012 Sept. 30.0 TT = JDT 2456200.5 MPC
M 356.16392 (2000.0) P Q
n 0.36644553 Peri. 152.17238 +0.95327054 -0.28606262
a 1.9340295 Node 224.80634 +0.24521715 +0.92050126
e 0.4651721 Incl. 7.92615 +0.17647615 +0.26616837
P 2.69 H 24....
Orbital elements:
2012 VF46 Earth MOID = 0.0371 AU
Epoch 2012 Sept. 30.0 TT = JDT 2456200.5 MPC
M 331.70688 (2000.0) P Q
n 0.35203358 Peri. 42.79169 -0.03898205 -0.98806269
a 1.9864608 Node 50.01259 +0.85616860 -0.10993214
e 0.5212723 Incl. 11.21670 +0.51522395 +0.10792150
P 2.80 H 23.3...
Orbital elements:
2012 VG46 Earth MOID = 0.0506 AU
Epoch 2012 Sept. 30.0 TT = JDT 2456200.5 MPC
M 338.63998 (2000.0) P Q
n 0.51754547 Peri. 178.17845 +0.69627920 -0.63180306
a 1.5363979 Node 227.48024 +0.65256082 +0.75483985
e 0.3226900 Incl. 27.52526 +0.29893085 -0.17618652
P 1.90 H 23...
Title: WASP-71b: a bloated hot Jupiter in an 2.9-day, prograde orbit around an evolved F8 star Authors: A. M. S. Smith, D. R. Anderson, F. Bouchy, A. Collier Cameron, A. P. Doyle, A. Fumel, M. Gillon, G. Hébrard, C. Hellier, E. Jehin, M. Lendl, P. F. L. Maxted, C. Moutou, F. Pepe, D. Pollacco, D. Queloz,...
Title: The Globular Cluster System of M60 (NGC 4649). II. Kinematics of the Globular Cluster System Authors: Ho Seong Hwang (1), Myung Gyoon Lee (1), Hong Soo Park (1), Sang Chul Kim (2), Jang-Hyun Park (2), Young-Jong Sohn (3), Sang-Gak Lee (1), Soo-Chang Rey (4), Young-Wook Lee (3), Ho-Il Kim (2) (...
Title: A comprehensive study of NGC 2023 with XMM-Newton and Spitzer Authors: M. A. López-García, J. López-Santiago, J. F. Albacete-Colombo, P. G. Pérez-González, E. de Castro Nearby star-forming regions are ideal laboratories to study high-energy emission of different stellar populations...
How prepared are we for a major marine earthquake? This week, New Zealand's leading coastal scientists, engineers and planners are attending the New Zealand Coastal Society 20th Annual Conference in Auckland. At the conference, NIWA's Dr Philip Barnes will explore the question of how well do we k...
Orbital elements:
2010 WB3 Earth MOID = 0.1109 AU
Epoch 2012 Sept. 30.0 TT = JDT 2456200.5 MPC
M 313.36668 (2000.0) P Q
n 0.51430932 Peri. 195.06436 -0.98305701 -0.17098154
a 1.5428361 Node 334.80106 +0.18009527 -0.83385901
e 0.7733327 Incl. 8.92622 +0.03412649 -0.52482804
P 1.92 H 19.8...